Location: Norderney
(53.7000°N, 7.1500°E)
Time: 16:59:55
(UTC+02:00)

ACS3 Solar Sail - Pass Details

Date: 19 August 2024
Orbit: 980 x 1030 km, 97.4° (Epoch: 08 September)

Event Time Altitude Azimuth Distance (km) Brightness Sun altitude
Exits shadow 21:44:49 - 160° (SSE) 3,551 4.2 -7.9°
Reaches altitude 10° 21:46:47 10° 159° (SSE) 2,803 3.7 -8.1°
Maximum altitude 21:53:08 82° 74° (ENE) 1,047 1.9 -8.9°
Drops below altitude 10° 21:59:37 10° 348° (NNW) 2,854 5.0 -9.7°
Sets 22:02:09 0° 347° (NNW) 3,814 5.8 -10.0°
